Regional Weather Roundup
Issued by NWS

Home | Current Version | Previous Version | Text Only | Print | Product List | Glossary Off
Versions: 1 2 3 4 5 6 7 8 9 10 11 12 13 14 15 16 17 18 19 20 21 22 23 24 25 26 27 28 29 30 31 32 33 34 35 36 37 38 39 40 41 42 43 44 45 46 47 48 49 50

000
ASUS43 KMKX 240400
RWRWI

WISCONSIN REGIONAL WEATHER ROUNDUP
NATIONAL WEATHER SERVICE MILWAUKEE/SULLIVAN WI
1100 PM CDT FRI JUN 23 2017

NOTE: "FAIR" INDICATES FEW OR NO CLOUDS BELOW 12,000 FEET WITH NO
SIGNIFICANT WEATHER AND/OR OBSTRUCTIONS TO VISIBILITY.

WIZ001-002-006>008-014>016-023>028-240500-
NORTHWEST WISCONSIN

CITY           SKY/WX    TMP DP  RH WIND       PRES   REMARKS
SUPERIOR ARPT  NOT AVBL
ASHLAND        CLOUDY    60  51  72 W9        29.82R
HAYWARD        CLOUDY    58  52  80 VRB3      29.86R
SIREN          CLOUDY    59  51  73 CALM      29.89R
CUMBERLAND     CLOUDY    59  50  72 NW9       29.88R
RICE LAKE      CLOUDY    61  52  72 W9        29.89R
CHETEK         CLOUDY    61  53  74 NW8       29.87R
LADYSMITH      CLOUDY    60  53  77 W8        29.86R
EAU CLAIRE     NOT AVBL
MENOMONIE      CLOUDY    59  56  90 W8        29.89R
NEW RICHMOND   CLOUDY    58  55  91 W8        29.91R
OSCEOLA        MOCLDY    60  51  72 W7        29.94R
$$

WIZ003>005-009-010-017-018-240500-
NORTH CENTRAL WISCONSIN

CITY           SKY/WX    TMP DP  RH WIND       PRES   REMARKS
MANITOWISH WTR MOCLDY    57  51  81 W7        29.80R
ARBOR VITAE    MOCLDY    59  51  73 W3        29.79R
WOODRUFF       MOCLDY    59  51  73 W3        29.79R
RHINELANDER    PTCLDY    56  52  86 W9        29.80R
EAGLE RIVER    PTCLDY    52  51  95 CALM      29.78S
LAND O LAKES   PTCLDY    53  51  92 CALM      29.80S
PHILLIPS       CLOUDY    57  54  89 W5        29.82R
TOMAHAWK       NOT AVBL
MEDFORD        CLOUDY    58  50  75 W7        29.84R
MERRILL        CLOUDY    59  54  84 W6        29.82R
$$

WIZ029-030-035-036-043>047-240500-
CENTRAL WISCONSIN

CITY           SKY/WX    TMP DP  RH WIND       PRES   REMARKS
WAUSAU         PTCLDY    59  53  80 W10       29.80R
MOSINEE        CLEAR     55  54  94 W5        29.83R
MARSHFIELD     CLOUDY    60  51  72 NW9       29.83R
STEVENS POINT  CLEAR     60  51  72 W3        29.82R
WAUPACA        CLOUDY    65  53  64 W7        29.81R
WAUTOMA        CLEAR     61  55  81 W8        29.82S
WISC RAPIDS    MOCLDY    60  52  74 W8        29.84R
CAMP DOUGLAS   NOT AVBL
$$

WIZ011>013-019>022-031-037>040-048>050-240500-
NORTHEAST WISCONSIN

CITY           SKY/WX    TMP DP  RH WIND       PRES   REMARKS
ANTIGO         CLEAR     56  51  81 W7        29.80R
SHAWANO        PTCLDY    63  52  67 W6        29.77R
OCONTO         CLEAR     57  52  82 CALM      29.75R
STURGEON BAY     N/A     65  52  62 NW7         N/A
GREEN BAY      CLEAR     62  55  77 W7        29.77R
MANITOWOC      NOT AVBL
APPLETON       PTCLDY    61  52  72 W6        29.78R
CLINTONVILLE   CLEAR     61  50  67 W8        29.78R
OSHKOSH        CLEAR     62  53  72 W6        29.80R
$$

WIZ032>034-041-042-053>061-240500-
SOUTHWEST WISCONSIN

CITY           SKY/WX    TMP DP  RH WIND       PRES   REMARKS
LA CROSSE      CLEAR     68  55  63 W12       29.87R
SPARTA         PTCLDY    61  53  74 W7        29.87S
VIROQUA        MOCLDY    63  56  78 W9        29.89R
BOSCOBEL       CLEAR     66  55  67 W7        29.88R
PRAIRIE DU CHI PTCLDY    64  53  67 W5        29.89R
PLATTEVILLE    CLEAR     63  58  84 W8        29.90R
$$

WIZ056-057-062-063-064-067-068-240500-
SOUTH CENTRAL WISCONSIN

CITY           SKY/WX    TMP DP  RH WIND       PRES   REMARKS
REEDSBURG      CLEAR     62  54  75 W6        29.85R
BARABOO/DELLS  CLEAR     61  53  75 W3        29.85R
LONE ROCK      NOT AVBL
MINERAL POINT  CLEAR     63  55  77 W8        29.89R
MADISON        PTCLDY    63  54  72 VRB5      29.84R
MIDDLETON      CLEAR     60  55  82 W6        29.85S
WATERTOWN      CLEAR     61  56  84 W3        29.83R
MONROE         CLEAR     63  54  72 W9        29.87R
JANESVILLE     CLEAR     63  54  72 W5        29.85R
$$

WIZ051-052-058>065-066-070>072-240500-
SOUTHEAST WISCONSIN

CITY           SKY/WX    TMP DP  RH WIND       PRES   REMARKS
MILWAUKEE      CLEAR     69  53  56 W10       29.81R
WAUKESHA       CLEAR     61  52  72 W10       29.84
MILWAUKEE/TIMM CLEAR     64  50  59 W9        29.82R
RACINE         CLEAR     67  52  58 W6        29.83R
KENOSHA        CLEAR     62  54  74 W6        29.83R
FOND DU LAC    CLEAR     63  52  67 W6        29.81R
SHEBOYGAN      CLEAR     63  55  75 W9        29.79R
WEST BEND      CLOUDY    64  52  63 W8        29.81R
JUNEAU         CLEAR     61  53  75 W5        29.84R
$$

LSZ147-162-240500-
LAKE SUPERIOR

STATION/POSITION TIME  TEMP    WIND        PRES    WAVE
                       AIR SEA DIR/SP/G            HT/PER
                 (UTC) (F)     (DEG/KT/KT) (MB)    (FT/S)
W MID LAKE BUOY  0250   46 39  250/  8/  8 1007.5R   1/ 3
DEVILS ISLAND    0300   56     290/ 18/ 20 1008.3R
SAXON HARBOR     0340   63     290/  6/ 12 1008.8R
$$

LMZ867-665-643>646-240500-
LAKE MICHIGAN

STATION/POSITION TIME  TEMP    WIND        PRES    WAVE
                       AIR SEA DIR/SP/G            HT/PER
                 (UTC) (F)     (DEG/KT/KT) (MB)    (FT/S)
CHAMBERS ISLAND  0340   64     220/  1/  6 1006.4R
S GREEN BAY BUOY 0300   67     290/ 10/ 14 1006.9
N MID LAKE BUOY  0250   61 57   40/  6/  6 1006.4R   1
NORTHPORT PIER   0340   66     290/  6/  9 1006.4R
KEWAUNEE LAKESHO 0330   63     300/  3/  4 1007.2R
SHEBOYGAN LAKESH 0300   68     280/ 10/ 12 1007.6R
PORT WASHINGTON  0330   67     290/  5/ 10 1009.5R
ATWATER BUOY     0239   65 60  290/  8/ 10 1009.0R
MILWAUKEE LAKESH 0330   68     290/  9/ 10   N/A
S MID LAKE BUOY  0250   66 63  340/ 12/ 14 1007.6R   0
KENOSHA   LAKESH 0300   70     310/ 10/ 15 1008.8
$$

TC  - TEMPERATURE IN CELSIUS
VSB - VISIBILITY IN STATUTE MILES
WCI - WIND CHILL INDEX
HX  - HEAT INDEX




USA.gov is the U.S. government's official web portal to all federal, state and local government web resources and services.